Voltar ao catálogo

THORAD AGENA D DEB

AtivoLEO
NORAD 4996·DEBRIS·🇺🇸 United States

Lançado Apr 8, 1970 de Vandenberg Space Force Base

Loading…

Próximas Passagens (próximas 24 horas)

TLE

AtualizadoSource: Space-Track

Época: Sep 14, 2026, 07:17 UTC

1 04996U 70025HS  26257.30416086  .00002536  00000-0  13880-2 0  9990
2 04996 100.3491  31.2063 0070395 198.0150 161.8520 14.11814357830808

Acompanhe THORAD AGENA D DEB em tempo real com AllMySat

Download on the App Store